EW2862 Weather Reports


time (UTC)temp
C
wind
direction
speed
KPH
gust
KPH
rain 1hr
cm
rain 24hr
cm
rain mn
cm
humidity
%
barometer
mb
20260901171515 35 290 1.6 8.0 0.00 0.00 0.00 48 1016.7
20260901170011 35 288 3.2 8.0 0.00 0.00 0.00 52 1016.8
20260901164508 33 287 0.0 4.8 0.00 0.00 0.00 52 1017.1
20260901163005 33 298 1.6 11.3 0.00 0.00 0.00 57 1017.2
20260901161501 32 303 6.4 16.1 0.00 0.00 0.00 56 1017.1
20260901160101 32 305 9.7 20.9 0.00 0.00 0.00 58 1017.2
20260901154555 32 268 1.6 12.9 0.00 0.00 0.00 56 1017.3
20260901153051 31 288 3.2 19.3 0.00 0.00 0.00 58 1017.3
20260901151549 30 288 1.6 9.7 0.00 0.00 0.00 62 1017.4
20260901150045 30 306 1.6 12.9 0.00 0.00 0.00 65 1017.3
20260901144542 29 296 0.0 14.5 0.00 0.00 0.00 67 1017.2
20260901143043 28 256 0.0 8.0 0.00 0.00 0.00 67 1017.3
20260901141547 28 247 0.0 12.9 0.00 0.00 0.00 69 1017.4
20260901140037 28 281 0.0 6.4 0.00 0.00 0.00 69 1017.5
20260901134537 27 250 0.0 8.0 0.00 0.00 0.00 69 1017.4
20260901133041 27 230 0.0 1.6 0.00 0.00 0.00 70 1017.4
20260901131536 26 230 0.0 6.4 0.00 0.00 0.00 72 1017.4
20260901130032 26 190 0.0 4.8 0.00 0.00 0.00 75 1017.4
20260901124532 25 187 0.0 0.0 0.00 0.00 0.00 79 1017.3
20260901123030 25 187 0.0 0.0 0.00 0.00 0.00 80 1017.1
20260901121527 24 187 0.0 0.0 0.00 0.00 0.00 80 1016.8
20260901120028 24 187 0.0 0.0 0.00 0.00 0.00 80 1016.7
20260901114525 24 187 0.0 0.0 0.00 0.00 0.00 79 1016.6
20260901113023 25 187 0.0 0.0 0.00 0.00 0.00 79 1016.5
20260901111522 25 187 0.0 0.0 0.00 0.00 0.00 78 1016.3
20260901110034 25 187 0.0 0.0 0.00 0.00 0.00 77 1016.3
20260901104520 25 187 0.0 0.0 0.00 0.00 0.00 76 1016.4
20260901103015 25 187 0.0 0.0 0.00 0.00 0.00 76 1016.1
20260901101513 25 187 0.0 0.0 0.00 0.00 0.00 76 1016.1
20260901100012 25 187 0.0 0.0 0.00 0.00 0.00 75 1016.0
20260901094511 26 187 0.0 0.0 0.00 0.00 0.00 74 1016.0
20260901093006 26 187 0.0 0.0 0.00 0.00 0.00 74 1016.0
20260901091505 26 187 0.0 0.0 0.00 0.00 0.00 74 1015.8
20260901090011 26 187 0.0 0.0 0.00 0.00 0.00 74 1015.8
20260901084502 26 187 0.0 0.0 0.00 0.00 0.00 74 1015.5
20260901083101 26 187 0.0 0.0 0.00 0.00 0.00 75 1015.5
20260901081613 26 187 0.0 0.0 0.00 0.00 0.00 73 1015.4
20260901074557 26 187 0.0 0.0 0.00 0.00 0.00 73 1015.4
20260901073054 27 187 0.0 0.0 0.00 0.00 0.00 73 1015.4
20260901071558 27 187 0.0 0.0 0.00 0.00 0.00 73 1015.4
20260901070059 27 187 0.0 0.0 0.00 0.00 0.00 73 1015.4
20260901064551 27 187 0.0 0.0 0.00 0.00 0.00 72 1015.4
20260901063049 27 187 0.0 0.0 0.00 0.00 0.00 71 1015.4
20260901061548 27 187 0.0 0.0 0.00 0.00 0.00 70 1015.5
20260901060046 28 187 0.0 0.0 0.00 0.00 0.00 69 1015.4
20260901054545 28 191 0.0 0.0 0.00 0.00 0.00 69 1015.4
20260901053050 28 191 0.0 0.0 0.00 0.00 0.00 68 1015.4
20260901051540 28 191 0.0 0.0 0.00 0.00 0.00 68 1015.3
20260901050038 28 191 0.0 0.0 0.00 0.00 0.00 67 1015.3
20260901044540 28 191 0.0 0.0 0.00 0.00 0.00 66 1015.3
20260901043047 29 191 0.0 3.2 0.00 0.00 0.00 66 1015.4
20260901041536 29 191 0.0 4.8 0.00 0.00 0.00 65 1015.3
20260901040046 29 153 0.0 1.6 0.00 0.00 0.00 64 1015.3
20260901034545 30 153 0.0 3.2 0.00 0.00 0.00 64 1015.4
20260901033049 30 153 0.0 0.0 0.00 0.00 0.00 64 1015.3
20260901031535 30 153 0.0 12.9 0.00 0.00 0.00 63 1015.2
20260901030035 30 219 0.0 6.4 0.00 0.00 0.00 62 1015.2
20260901024541 30 205 0.0 4.8 0.00 0.00 0.00 62 1015.0
20260901023035 31 189 0.0 4.8 0.00 0.00 0.00 61 1014.9
20260901021532 31 226 0.0 8.0 0.00 0.00 0.00 61 1014.8
20260901020033 31 217 0.0 1.6 0.00 0.00 0.00 61 1014.7
20260901014532 31 198 0.0 0.0 0.00 0.00 0.00 60 1014.5
20260901013031 31 190 0.0 0.0 0.00 0.00 0.00 59 1014.3
20260901011530 32 190 0.0 0.0 0.00 0.00 0.00 58 1014.3
20260901010039 32 190 0.0 0.0 0.00 0.00 0.00 57 1014.3
20260901004530 33 190 0.0 0.0 0.00 0.00 0.00 56 1014.2
20260901003029 34 190 0.0 0.0 0.00 0.00 0.00 54 1014.2
20260901001532 35 190 0.0 0.0 0.00 0.00 0.00 51 1014.2
20260901000028 36 190 0.0 0.0 0.00 0.00 0.00 47 1014.2
20260831234537 36 190 0.0 1.6 0.00 0.00 0.00 47 1014.2
20260831233027 37 211 0.0 8.0 0.00 0.00 0.00 46 1014.2
20260831231526 37 192 0.0 8.0 0.00 0.00 0.00 45 1014.2
20260831230026 37 251 0.0 12.9 0.00 0.00 0.00 43 1014.1
20260831224524 37 185 1.6 16.1 0.00 0.00 0.00 44 1014.1
20260831223025 37 259 1.6 14.5 0.00 0.00 0.00 43 1014.1
20260831221526 37 211 1.6 8.0 0.00 0.00 0.00 43 1014.1
20260831220028 37 165 0.0 9.7 0.00 0.00 0.00 42 1014.1
20260831214522 38 169 1.6 16.1 0.00 0.00 0.00 41 1014.0
20260831213034 38 140 3.2 14.5 0.00 0.00 0.00 42 1014.0
20260831211519 38 250 3.2 19.3 0.00 0.00 0.00 46 1014.2
20260831210016 38 182 0.0 11.3 0.00 0.00 0.00 43 1014.2
20260831204513 37 228 0.0 11.3 0.00 0.00 0.00 43 1014.2
20260831203013 37 163 3.2 16.1 0.00 0.00 0.00 43 1014.3
20260831201511 37 177 1.6 14.5 0.00 0.00 0.00 43 1014.5
20260831200005 37 246 1.6 9.7 0.00 0.00 0.00 40 1014.7
20260831194503 37 246 0.0 11.3 0.00 0.00 0.00 42 1014.7
20260831193003 37 257 0.0 8.0 0.00 0.00 0.00 43 1014.8
20260831191559 37 221 0.0 8.0 0.00 0.00 0.00 43 1015.0
20260831190130 37 216 0.0 8.0 0.00 0.00 0.00 45 1015.1
20260831184554 36 261 0.0 11.3 0.00 0.00 0.00 46 1015.3
20260831183049 36 296 1.6 14.5 0.00 0.00 0.00 47 1015.5
20260831181554 36 236 0.0 8.0 0.00 0.00 0.00 47 1015.6
20260831180043 35 238 1.6 11.3 0.00 0.00 0.00 47 1015.8
20260831174549 35 144 1.6 16.1 0.00 0.00 0.00 48 1016.1
20260831173037 35 264 1.6 9.7 0.00 0.00 0.00 49 1016.3